Home   Weather   Amstetten   Past weeks

Flag for Austria Past Weather in Amstetten, Lower Austria, Austria — Yesterday and Last 2 Weeks

Now
25 °F

Overcast.


Feels Like: 19 °F
Forecast: 8 / 25 °F
Wind: 5 mph from Southeast

Location: Linz / Hoersching-Flughafen

Current Time: Jan 18, 2017 at 9:30:03 pm

Latest Report: Jan 18, 2017 at 8:00 pm


Visibility: 6 mi

Pressure: 30.66 "Hg

Humidity: 70%

Dew Point: 17 °F

Location of AmstettenLocation

Past Weather in Amstetten — Graph

°F

Amstetten Temperature Yesterday

Maximum temperature yesterday: 27 °F (at 2:00 pm)
Minimum temperature yesterday: 24 °F (at 4:00 am)
Average temperature yesterday: 26 °F

High & Low Weather Summary for the Past Weeks

 TemperatureHumidityPressure
High40 °F (Jan 13, 11:00 am)99% (Jan 4, 8:00 am)30.77 "Hg (Jan 4, 8:00 am)
Low3 °F (Jan 7, 7:00 am)55% (Jan 13, 1:00 pm)29.44 "Hg (Jan 13, 4:00 am)
Average26 °F81%30.20 "Hg
* Reported Jan 3 8:00 pm — Jan 18 8:00 pm, Amstetten, Weather by CustomWeather, © 2017

Note: Actual official high and low records may vary slightly from our data, if they occured in-between our weather recording intervals... More about our weather records

Advertising

Amstetten Weather History for the Previous 24 Hours

Scroll right to see more
 ConditionsComfort  
Time TempWeatherWind HumidityBarometerVisibility
8:00 pm
Wed, Jan 18
25 °FOvercast.5 mph70%30.66 "Hg6 mi
7:00 pm26 °FOvercast.5 mph70%30.66 "Hg6 mi
6:00 pm26 °FOvercast.5 mph72%30.65 "Hg6 mi
5:00 pm26 °FOvercast.3 mph74%30.65 "Hg6 mi
4:00 pm26 °FOvercast.5 mph71%30.64 "Hg6 mi
3:00 pm27 °FOvercast.5 mph71%30.63 "Hg6 mi
2:00 pm27 °FOvercast.6 mph68%30.63 "Hg6 mi
1:00 pm27 °FOvercast.6 mph69%30.64 "Hg7 mi
12:00 pmN/APassing clouds.8 mphN/AN/A1 mi
11:00 am27 °FOvercast.6 mph67%30.66 "Hg9 mi
10:00 am27 °FOvercast.6 mph68%30.65 "Hg7 mi
9:00 am26 °FOvercast.5 mph72%30.64 "Hg9 mi
8:00 am26 °FOvercast.N/A73%30.63 "Hg10 mi
7:00 am26 °FOvercast.N/A71%30.62 "Hg15 mi
6:00 am26 °FOvercast.5 mph71%30.62 "Hg17 mi
5:00 am25 °FOvercast.5 mph71%30.62 "Hg14 mi
4:00 am25 °FOvercast.3 mph71%30.62 "Hg18 mi
3:00 am26 °FOvercast.3 mph70%30.63 "Hg19 mi
2:00 am26 °FOvercast.N/A69%30.63 "Hg19 mi
1:00 am26 °FOvercast.6 mph69%30.62 "Hg19 mi
12:00 am26 °FOvercast.5 mph70%30.62 "Hg19 mi
11:00 pm
Tue, Jan 17
26 °FOvercast.5 mph70%30.61 "Hg22 mi
10:00 pm26 °FOvercast.3 mph70%30.60 "Hg19 mi
9:00 pm26 °FOvercast.N/A74%30.59 "Hg19 mi
Weather by CustomWeather, © 2017

See weather overviewHow to use our weather pages